Location: Audrecelles
(50.8240°N, 1.5923°E)
Time: 02:53:25
(UTC+00:00)

Cosmos 44 - Pass Details

Date: 16 October 2025
Orbit: 576 x 774 km, 65.1° (Epoch: 13 November)

Event Time Altitude Azimuth Distance (km) Brightness Sun altitude
Exits shadow 03:14:36 15° 348° (NNW) 1,831 5.5 -29.3°
Maximum altitude 03:16:44 20° 19° (NNE) 1,637 5.6 -29.0°
Drops below altitude 10° 03:20:26 10° 66° (ENE) 2,237 6.9 -28.4°
Sets 03:23:30 0° 83° (E) 3,190 7.9 -28.0°
